星链-5316 (STARLINK-5316 )

导读 | 星芒AI

STARLINK-5316 是 SpaceX Starlink 项目中的一颗低轨通信卫星,属于第 53 批发射的星链卫星群。该卫星旨在为全球提供高速互联网服务,尤其关注网络覆盖不足的地区。它运行在约 550 公里的高度,采用先进的相控阵天线和激光通信技术,以提高数据传输效率和系统稳定性。作为星链星座的一部分,STARLINK-5316 有助于构建更广泛的全球宽带网络,支持民用和商业应用。

基本信息
目录编号:
55305
目录名称:
STARLINK-5316
国际标识:
2023-010AN
轨道中心:
EARTH
卫星名称:
星链-5316
卫星全名:
星链-5316 (STARLINK-5316 )
卫星状态:
在轨 (已飞行1067 天)
发射日期:
2023-01-19 UTC
国别 :
美国 (US)
星等 :
--
轨道信息
数据来源 国际轨道数据 AOE轨道数据
星历时间 2025-12-21T08:58:18+0800
10小时前
查看轨道信息
2025-12-21T12:00:00+0800
7小时前
查看轨道信息
半长轴 6950.177km 6950.107km
偏心率 0.0002765 0.0002826
轨道倾角 69.998° 69.998°
近地点辐角 274.276° 277.906°
升交点赤经 222.941° 222.621°
平近点角 85.809° 42.633°
近地点 570.118km 570.005km
远地点 573.962km 573.935km
周期 96.107分钟 96.105分钟
每日圈数 14.983354 14.98358
详细信息
固有亮度:
5
最大亮度:
2.5
卫星平台:
Starlink v1.5
覆盖范围:
全球
运营商:
太空探索技术公司
运营商所在国:
美国
制造商(研发单位):
太空探索技术公司
制造商所在国:
美国
使用方式:
暂无
卫星简介
星链(Starlink)计划是由太空探索技术公司(SpaceX)提出的一个巨型低轨卫星互联网星座项目,计划在2019年至2024年间在太空搭建由约1.2万颗卫星组成的“星链”网络,其中1584颗将部署在地球上空550千米处的近地轨道,并从2020年开始工作。该卫星仍在工作。
2D轨道图
3D轨道图
轨道高度分析图
轨道倾角分析图
轨道综合分析图
查看轨道综合分析图